IK3ZGB Weather Reports


Display with metric or nautical units.
time (UTC)temp
F
wind
direction
speed
MPH
gust
MPH
rain 1hr
in
rain 24hr
in
rain mn
in
humidity
%
barometer
mb
20260508103844 73 0.0 0.0 0.00 0.00 0.00 63 1016.8
20260508102843 73 0.0 0.0 0.00 0.00 0.00 63 1016.9
20260508101844 74 0.0 0.0 0.00 0.00 0.00 63 1016.9
20260508100844 71 0.0 0.0 0.00 0.00 0.00 62 1017.2
20260508095845 71 0.0 0.0 0.00 0.00 0.00 64 1017.2
20260508094845 70 0.0 0.0 0.00 0.00 0.00 64 1017.3
20260508093844 73 0.0 0.0 0.00 0.00 0.00 66 1017.4
20260508092845 70 0.0 0.0 0.00 0.00 0.00 65 1017.5
20260508091844 71 0.0 0.0 0.00 0.00 0.00 66 1017.4
20260508090844 71 0.0 0.0 0.00 0.00 0.00 66 1017.5
20260508085844 70 0.0 0.0 0.00 0.00 0.00 67 1017.7
20260508084845 68 0.0 0.0 0.00 0.00 0.00 66 1017.8
20260508083844 69 0.0 0.0 0.00 0.00 0.00 67 1017.7
20260508082844 69 0.0 0.0 0.00 0.00 0.00 68 1017.6
20260508081844 67 0.0 0.0 0.00 0.00 0.00 67 1017.6
20260508080846 66 0.0 0.0 0.00 0.00 0.00 69 1017.6
20260508075845 66 0.0 0.0 0.00 0.00 0.00 68 1017.6
20260508074844 67 0.0 0.0 0.00 0.00 0.00 70 1017.3
20260508073845 66 0.0 0.0 0.00 0.00 0.00 69 1017.5
20260508072844 66 0.0 0.0 0.00 0.00 0.00 70 1017.5
20260508071844 66 0.0 0.0 0.00 0.00 0.00 69 1017.4
20260508070844 67 0.0 0.0 0.00 0.00 0.00 68 1017.5
20260508065844 66 0.0 0.0 0.00 0.00 0.00 69 1017.4
20260508064845 66 0.0 0.0 0.00 0.00 0.00 68 1017.3
20260508063844 68 0.0 0.0 0.00 0.00 0.00 66 1017.5
20260508062844 72 0.0 0.0 0.00 0.00 0.00 65 1017.1
20260508061844 70 0.0 0.0 0.00 0.00 0.00 64 1017.2
20260508060845 70 0.0 0.0 0.00 0.00 0.00 64 1016.8
20260508055845 70 0.0 0.0 0.00 0.00 0.00 64 1016.6
20260508054844 74 0.0 0.0 0.00 0.00 0.00 60 1016.6
20260508053844 78 0.0 0.0 0.00 0.00 0.00 60 1017.0
20260508052844 76 0.0 0.0 0.00 0.00 0.00 61 1017.3
20260508051845 68 0.0 0.0 0.00 0.00 0.00 66 1017.3
20260508050844 65 0.0 0.0 0.00 0.00 0.00 70 1017.5
20260508045844 64 0.0 0.0 0.00 0.00 0.00 74 1017.3
20260508044845 61 0.0 0.0 0.00 0.00 0.00 76 1017.2
20260508043844 59 0.0 0.0 0.00 0.00 0.00 78 1017.2
20260508042844 58 0.0 0.0 0.00 0.00 0.00 79 1017.2
20260508041845 58 0.0 0.0 0.00 0.00 0.00 79 1017.3
20260508040845 58 0.0 0.0 0.00 0.00 0.00 78 1016.8
20260508035844 57 0.0 0.0 0.00 0.00 0.00 78 1016.9
20260508034845 58 0.0 0.0 0.00 0.00 0.00 78 1016.8
20260508033845 58 0.0 0.0 0.00 0.00 0.00 77 1016.6
20260508032844 58 0.0 0.0 0.00 0.00 0.00 78 1016.7
20260508031845 58 0.0 0.0 0.00 0.00 0.00 78 1016.6
20260508030844 58 0.0 0.0 0.00 0.00 0.00 78 1016.7
20260508025843 58 0.0 0.0 0.00 0.00 0.00 78 1016.7
20260508024845 58 0.0 0.0 0.00 0.00 0.00 78 1017.2
20260508023845 58 0.0 0.0 0.00 0.00 0.00 78 1017.0
20260508022844 59 0.0 0.0 0.00 0.00 0.00 78 1017.3
20260508021844 59 0.0 0.0 0.00 0.00 0.00 78 1017.4
20260508020844 59 0.0 0.0 0.00 0.00 0.00 78 1017.5
20260508015844 59 0.0 0.0 0.00 0.00 0.00 79 1017.4
20260508014844 59 0.0 0.0 0.00 0.00 0.00 79 1017.6
20260508013843 59 0.0 0.0 0.00 0.00 0.00 79 1017.5
20260508012845 59 0.0 0.0 0.00 0.00 0.00 79 1017.3
20260508011844 59 0.0 0.0 0.00 0.00 0.00 79 1017.5
20260508010844 59 0.0 0.0 0.00 0.00 0.00 80 1017.5
20260508005844 59 0.0 0.0 0.00 0.00 0.00 80 1017.1
20260508004845 59 0.0 0.0 0.00 0.00 0.00 79 1017.2
20260508003844 59 0.0 0.0 0.00 0.00 0.00 79 1017.4
20260508002843 59 0.0 0.0 0.00 0.00 0.00 79 1017.2
20260508001845 59 0.0 0.0 0.00 0.00 0.00 79 1017.3
20260508000844 59 0.0 0.0 0.00 0.00 0.00 79 1017.3
20260507235843 59 0.0 0.0 0.00 0.00 0.00 79 1017.3
20260507234845 59 0.0 0.0 0.00 0.00 0.00 78 1017.2
20260507233843 59 0.0 0.0 0.00 0.00 0.00 78 1017.2
20260507232845 59 0.0 0.0 0.00 0.00 0.00 78 1017.2
20260507231844 60 0.0 0.0 0.00 0.00 0.00 78 1017.2
20260507230846 60 0.0 0.0 0.00 0.00 0.00 77 1017.5
20260507225845 60 0.0 0.0 0.00 0.00 0.00 77 1017.5
20260507224844 61 0.0 0.0 0.00 0.00 0.00 77 1017.4
20260507223843 61 0.0 0.0 0.00 0.00 0.00 77 1017.2
20260507222844 61 0.0 0.0 0.00 0.00 0.00 77 1017.2
20260507221843 61 0.0 0.0 0.00 0.00 0.00 77 1017.1
20260507220844 61 0.0 0.0 0.00 0.00 0.00 78 1017.1
20260507215844 61 0.0 0.0 0.00 0.00 0.00 77 1016.8
20260507214845 61 0.0 0.0 0.00 0.00 0.00 77 1017.0
20260507213845 61 0.0 0.0 0.00 0.00 0.00 77 1017.2
20260507212844 61 0.0 0.0 0.00 0.00 0.00 77 1016.9
20260507211844 60 0.0 0.0 0.00 0.00 0.00 77 1017.2
20260507210844 61 0.0 0.0 0.00 0.00 0.00 76 1017.1
20260507205845 61 0.0 0.0 0.00 0.00 0.00 77 1017.0
20260507204845 61 0.0 0.0 0.00 0.00 0.00 77 1016.8
20260507203845 61 0.0 0.0 0.00 0.00 0.00 77 1016.7
20260507202845 61 0.0 0.0 0.00 0.00 0.00 78 1016.7
20260507201844 62 0.0 0.0 0.00 0.00 0.00 78 1016.4
20260507200844 62 0.0 0.0 0.00 0.00 0.00 78 1016.4
20260507195845 62 0.0 0.0 0.00 0.00 0.00 78 1016.6
20260507194845 62 0.0 0.0 0.00 0.00 0.00 77 1016.3
20260507193844 62 0.0 0.0 0.00 0.00 0.00 77 1016.2
20260507192845 62 0.0 0.0 0.00 0.00 0.00 78 1015.6
20260507191844 63 0.0 0.0 0.00 0.00 0.00 78 1015.7
20260507190845 63 0.0 0.0 0.00 0.00 0.00 77 1015.6
20260507185845 63 0.0 0.0 0.00 0.00 0.00 77 1015.2
20260507184844 64 0.0 0.0 0.00 0.00 0.00 77 1015.1
20260507183844 64 0.0 0.0 0.00 0.00 0.00 76 1014.9
20260507182845 64 0.0 0.0 0.00 0.00 0.00 76 1014.8
20260507181844 64 0.0 0.0 0.00 0.00 0.00 75 1014.8
20260507180845 65 0.0 0.0 0.00 0.00 0.00 74 1014.3
20260507175845 65 0.0 0.0 0.00 0.00 0.00 71 1014.3
20260507174844 66 0.0 0.0 0.00 0.00 0.00 70 1014.1
20260507173844 66 0.0 0.0 0.00 0.00 0.00 69 1013.9
20260507172845 67 0.0 0.0 0.00 0.00 0.00 69 1013.9
20260507171844 67 0.0 0.0 0.00 0.00 0.00 68 1013.9
20260507170844 68 0.0 0.0 0.00 0.00 0.00 65 1013.7
20260507165847 68 0.0 0.0 0.00 0.00 0.00 65 1013.6
20260507164843 69 0.0 0.0 0.00 0.00 0.00 65 1013.7
20260507163846 68 0.0 0.0 0.00 0.00 0.00 66 1013.5
20260507162850 68 0.0 0.0 0.00 0.00 0.00 66 1013.6
20260507161845 68 0.0 0.0 0.00 0.00 0.00 66 1013.6
20260507160845 68 0.0 0.0 0.00 0.00 0.00 65 1013.6
20260507155845 68 0.0 0.0 0.00 0.00 0.00 66 1013.5
20260507154844 68 0.0 0.0 0.00 0.00 0.00 66 1013.3
20260507153844 68 0.0 0.0 0.00 0.00 0.00 66 1013.4
20260507152845 68 0.0 0.0 0.00 0.00 0.00 66 1013.1
20260507151846 68 0.0 0.0 0.00 0.00 0.00 66 1013.2
20260507150845 69 0.0 0.0 0.00 0.00 0.00 65 1013.3
20260507145849 69 0.0 0.0 0.00 0.00 0.00 66 1013.1
20260507144844 69 0.0 0.0 0.00 0.00 0.00 68 1013.3
20260507143845 68 0.0 0.0 0.00 0.00 0.00 68 1013.1
20260507142845 68 0.0 0.0 0.00 0.00 0.00 67 1013.4
20260507141845 69 0.0 0.0 0.00 0.00 0.00 67 1013.3
20260507140852 69 0.0 0.0 0.00 0.00 0.00 71 1013.4
20260507135847 68 0.0 0.0 0.00 0.00 0.00 74 1013.5
20260507134844 67 0.0 0.0 0.00 0.00 0.00 74 1013.7
20260507133848 66 0.0 0.0 0.00 0.00 0.00 77 1013.3
20260507132845 65 0.0 0.0 0.00 0.00 0.00 78 1013.5
20260507131850 65 0.0 0.0 0.00 0.00 0.00 76 1013.9
20260507130844 64 0.0 0.0 0.00 0.00 0.00 72 1013.6
20260507125845 63 0.0 0.0 0.00 0.00 0.00 74 1013.9
20260507124845 64 0.0 0.0 0.00 0.00 0.00 74 1013.3
20260507123844 67 0.0 0.0 0.00 0.00 0.00 71 1012.9
20260507122845 71 0.0 0.0 0.00 0.00 0.00 66 1013.0
20260507121844 71 0.0 0.0 0.00 0.00 0.00 63 1012.9
20260507120844 73 0.0 0.0 0.00 0.00 0.00 62 1013.0
20260507115845 73 0.0 0.0 0.00 0.00 0.00 62 1013.1
20260507114848 74 0.0 0.0 0.00 0.00 0.00 64 1013.5
20260507113845 72 0.0 0.0 0.00 0.00 0.00 63 1013.0
20260507112845 73 0.0 0.0 0.00 0.00 0.00 64 1013.4
20260507111845 73 0.0 0.0 0.00 0.00 0.00 63 1013.3
20260507110846 74 0.0 0.0 0.00 0.00 0.00 61 1013.4
20260507105844 73 0.0 0.0 0.00 0.00 0.00 62 1013.3
20260507104843 73 0.0 0.0 0.00 0.00 0.00 62 1013.6